Regional Weather Roundup
Issued by NWS Sterling, VA

Home | Current Version | Previous Version | Graphics & Text | Print | Product List | Glossary On
Versions: 1 2 3 4 5 6 7 8 9 10 11 12 13 14 15 16 17 18 19 20 21 22 23 24 25 26 27 28 29 30 31 32 33 34 35 36 37 38 39 40 41 42 43 44 45 46 47 48 49 50
000
ASUS41 KLWX 042110
RWRLWX

REGIONAL WEATHER ROUNDUP
NATIONAL WEATHER SERVICE BALTIMORE MD/WASHINGTON DC
500 PM EDT MON MAY 04 2015

Note: "FAIR" indicates few or no clouds below 12,000 feet
with no significant weather and/or obstructions to visibility.
 TC=TEMPERATURE CELSIUS

 * =Non NWS site. Station does not report precipitation (e.g. rain,
    snow, etc.), thunder, or fog.

DCZ001-MDZ009-015-VAZ040>042-051-053>054-042200-
WASHINGTON METRO

CITY           SKY/WX    TMP DP  RH WIND       PRES   REMARKS
WASHINGTON NAT MOSUNNY   83  52  34 S14G21    30.16F
DULLES         MOSUNNY   83  48  29 S13G18    30.15F
ANDREWS AFB    SUNNY     83  48  29 S14G20    30.16F
FT BELVOIR     SUNNY     84  49  29 S8G17     30.16F
QUANTICO       MOSUNNY   76  56  49 S12       30.17F
COLLEGE PARK*  SUNNY     86  41  20 S6        30.15F
LEESBURG*      SUNNY     86  52  30 S13G21    30.15F
MANASSAS*      SUNNY     84  48  28 S12G23    30.15F
GAITHERSBURG*  SUNNY     84  46  26 SW9       30.19F

$$

MDZ006>007-011-014-042200-
BALTIMORE METRO

CITY           SKY/WX    TMP DP  RH WIND       PRES   REMARKS
BWI AIRPORT    MOSUNNY   84  43  23 SW13G18   30.14F
MD SCIENCE CTR   N/A     86  42  21 MISG      30.15F
MARTIN STATE   MOSUNNY   79  54  41 SE16G22   30.18F
ANNAPOLIS      SUNNY     76  50  40 S14G21    30.17F
FORT MEADE*    SUNNY     82  43  24 SW9G17    30.18F

$$

MDZ012-015-019>023-042200-
MARYLAND EASTERN SHORE

CITY           SKY/WX    TMP DP  RH WIND       PRES   REMARKS
OCEAN CITY     SUNNY     73  52  47 S8        30.23F
SALISBURY      SUNNY     80  44  27 SW10G23   30.22F
BAY BRIDGE AP*   N/A    N/A N/A N/A S10G18    30.18S
CAMBRIDGE*     SUNNY     81  48  32 S9G16     30.20F
EASTON*        SUNNY     82  48  30 SW13G20   30.23F

$$

MDZ017>025-042200-
SOUTHERN MARYLAND

CITY           SKY/WX    TMP DP  RH WIND       PRES   REMARKS
PATUXENT RIVER MOSUNNY   76  54  46 SE15      30.19F
ST INIGOES     SUNNY     79  53  40 SE9       30.19F
LEONARDTOWN*   SUNNY     81  45  28 SE10G16   30.21S

$$

MDZ003>005-042200-
NORTH CENTRAL MARYLAND

CITY           SKY/WX    TMP DP  RH WIND       PRES   REMARKS
FREDERICK*     SUNNY     86  36  16 S10G18    30.16F
HAGERSTOWN APT SUNNY     84  45  25 S13G20    30.12F
WESTMINSTER*   SUNNY     84  37  18 SW16      30.16S

$$

MDZ501>502-042200-
WESTERN MARYLAND

CITY           SKY/WX    TMP DP  RH WIND       PRES   REMARKS
OAKLAND*       MOSUNNY   73  43  33 W10       30.24F
CUMBERLAND*    MOSUNNY   84  41  21 SW8G17    30.16S

$$

VAZ025>031-042200-
SHENANDOAH VALLEY

CITY           SKY/WX    TMP DP  RH WIND       PRES   REMARKS
WINCHESTER*    PTSUNNY   82  34  17 S8        30.14F
FRONT ROYAL*   FAIR      82  46  28 S3        30.13S
LURAY*         FAIR      86  50  28 S9        30.15F
NEW MARKET*    MOCLDY    82  49  31 S7G20     30.13F
STAUNTON*      MOSUNNY   82  43  24 SW10      30.19F
WAYNESBORO*    FAIR      80  49  33 S8        30.20F

$$

WVZ021-048>050-054>055-042200-
EASTERN WEST VIRGINIA PANHANDLE

CITY           SKY/WX    TMP DP  RH WIND       PRES   REMARKS
MARTINSBURG    PTSUNNY   81  46  29 S12       30.13F
PETERSBURG*    MOSUNNY   83  41  22 W10       30.15S

$$

VAZ036>039-050-042200-
CENTRAL FOOTHILLS

CITY           SKY/WX    TMP DP  RH WIND       PRES   REMARKS
CHARLOTTESVILL SUNNY     82  50  32 S15G21    30.16F
CULPEPER*      NOT AVBL
ORANGE*        SUNNY     82  50  32 S7G16     30.18F
GORDONSVILLE*  FAIR      83  52  34 S9        30.16F
WARRENTON*     FAIR      85  54  33 S13G18    30.15F

$$

VAZ055>057-042200-
NORTH AND CENTRAL PIEDMONT

CITY           SKY/WX    TMP DP  RH WIND       PRES   REMARKS
FREDERICKSBRG* MOSUNNY   86  51  29 SW13      30.16F
STAFFORD*      MOSUNNY   83  42  23 S10       30.20F

$$

NCZ024-NYZ072-PAZ021-071-VAZ022-071-042200-
OTHER REGIONAL OBSERVATIONS

CITY           SKY/WX    TMP DP  RH WIND       PRES   REMARKS
NEW YORK CITY  MOSUNNY   83  39  21 VRB7      30.14F
PHILADELPHIA   MOSUNNY   84  40  21 S15       30.16F
PITTSBURGH     CLOUDY    80  46  30 SW14G23   30.14F
ROANOKE        PTSUNNY   79  51  37 S10       30.22F
RICHMOND       MOSUNNY   83  50  31 S12       30.20F
RALEIGH        MOSUNNY   81  54  39 SW13      30.25F

$$

ANZ530>537-042200-
MARINE OBSERVATIONS

STATION/POSITION TIME  TEMP    WIND        PRES
                       AIR SEA DIR/SP/G
                 (UTC) (F)     (DEG/KT/KT) (MB)
THOMAS PT LIGHT  2100   69 59  170/ 20/ 21 1022.3F
BALT KEY BRIDGE  2000   77     140/ 19/ 22 1021.0F
COVE POINT       2000   66     190/ 18/ 19 1023.8F
LEWISETTA        2000   79 67              1022.6F
SOLOMONS ISLAND  2000      61                N/A
PINEY POINT      2000          150/ 14/ 15   N/A

$$




USA.gov is the U.S. government's official web portal to all federal, state and local government web resources and services.